K5KVN-2 Weather Reports


time (UTC)temp
C
wind
direction
speed
KPH
gust
KPH
rain 1hr
cm
rain 24hr
cm
rain mn
cm
humidity
%
barometer
mb
20260904010705 32 137 4.8 11.3 0.00 0.00 0.00 47 1013.4
20260904005705 32 123 6.4 9.7 0.00 0.00 0.00 47 1013.4
20260904004703 32 128 6.4 11.3 0.00 0.00 0.00 46 1013.4
20260904004140 33 138 8.0 12.9 0.00 0.00 0.00 46 1013.4
20260904002701 33 129 8.0 14.5 0.00 0.00 0.00 45 1013.3
20260904002137 33 155 11.3 19.3 0.00 0.00 0.00 44 1013.4
20260904000703 33 166 12.9 19.3 0.00 0.00 0.00 44 1013.4
20260903235703 34 176 9.7 14.5 0.00 0.00 0.00 44 1013.4
20260903234702 34 142 11.3 17.7 0.00 0.00 0.00 43 1013.3
20260903233703 34 130 11.3 24.1 0.00 0.00 0.00 42 1013.3
20260903232704 35 152 12.9 25.7 0.00 0.00 0.00 42 1013.2
20260903231701 34 189 14.5 25.7 0.00 0.00 0.00 41 1013.1
20260903230702 35 166 12.9 24.1 0.00 0.00 0.00 42 1013.1
20260903230142 35 155 14.5 25.7 0.00 0.00 0.00 41 1013.2
20260903224702 35 184 12.9 20.9 0.00 0.00 0.00 41 1013.3
20260903223703 35 157 11.3 22.5 0.00 0.00 0.00 40 1013.1
20260903222701 35 168 16.1 30.6 0.00 0.00 0.00 41 1013.2
20260903221703 35 161 11.3 16.1 0.00 0.00 0.00 40 1013.2
20260903220703 36 161 11.3 24.1 0.00 0.00 0.00 40 1013.3
20260903215702 36 153 14.5 32.2 0.00 0.00 0.00 40 1013.4
20260903214701 35 168 14.5 22.5 0.00 0.00 0.00 41 1013.3
20260903214142 35 174 14.5 29.0 0.00 0.00 0.00 42 1013.6
20260903212701 36 171 14.5 24.1 0.00 0.00 0.00 41 1013.7
20260903211702 36 187 14.5 22.5 0.00 0.00 0.00 41 1013.7
20260903211134 35 161 12.9 27.4 0.00 0.00 0.00 41 1013.9
20260903205658 35 171 14.5 27.4 0.00 0.00 0.00 42 1013.8
20260903204657 35 173 14.5 27.4 0.00 0.00 0.00 43 1014.0
20260903203658 35 175 11.3 24.1 0.00 0.00 0.00 43 1014.0
20260903202659 35 153 12.9 29.0 0.00 0.00 0.00 43 1014.1
20260903201657 36 182 11.3 29.0 0.00 0.00 0.00 41 1014.1
20260903200659 36 182 11.3 19.3 0.00 0.00 0.00 40 1014.2
20260903195700 35 144 12.9 22.5 0.00 0.00 0.00 42 1014.2
20260903194657 36 123 14.5 27.4 0.00 0.00 0.00 41 1014.3
20260903193658 36 129 11.3 20.9 0.00 0.00 0.00 41 1014.3
20260903192659 35 190 14.5 32.2 0.00 0.00 0.00 43 1014.4
20260903191659 36 167 14.5 32.2 0.00 0.00 0.00 41 1014.5
20260903190659 35 164 14.5 32.2 0.00 0.00 0.00 42 1014.5
20260903185658 35 196 14.5 25.7 0.00 0.00 0.00 42 1014.6
20260903184655 35 175 14.5 29.0 0.00 0.00 0.00 42 1014.9
20260903183657 35 155 17.7 32.2 0.00 0.00 0.00 41 1014.9
20260903182654 35 165 17.7 35.4 0.00 0.00 0.00 42 1015.1
20260903181655 35 163 17.7 29.0 0.00 0.00 0.00 43 1015.1
20260903180651 35 163 16.1 35.4 0.00 0.00 0.00 43 1015.2
20260903175651 34 182 16.1 27.4 0.00 0.00 0.00 43 1015.6
20260903174648 34 171 9.7 22.5 0.00 0.00 0.00 45 1015.6
20260903173645 34 176 14.5 29.0 0.00 0.00 0.00 46 1015.9
20260903172645 34 194 14.5 25.7 0.00 0.00 0.00 46 1016.0
20260903172126 33 186 14.5 25.7 0.00 0.00 0.00 47 1016.2
20260903170644 33 175 14.5 27.4 0.00 0.00 0.00 48 1016.3
20260903165637 33 146 14.5 22.5 0.00 0.00 0.00 49 1016.4
20260903164637 33 177 14.5 27.4 0.00 0.00 0.00 49 1016.5
20260903162638 32 200 14.5 29.0 0.00 0.00 0.00 51 1016.5
20260903161637 32 205 17.7 29.0 0.00 0.00 0.00 51 1016.6
20260903160637 32 179 16.1 32.2 0.00 0.00 0.00 51 1016.6
20260903155639 31 163 17.7 27.4 0.00 0.00 0.00 52 1016.7
20260903154637 31 183 14.5 25.7 0.00 0.00 0.00 53 1016.7
20260903153638 31 174 12.9 22.5 0.00 0.00 0.00 54 1016.8
20260903152632 31 167 12.9 27.4 0.00 0.00 0.00 55 1016.8
20260903151633 30 178 11.3 22.5 0.00 0.00 0.00 56 1017.0
20260903145631 30 165 9.7 24.1 0.00 0.00 0.00 59 1017.0
20260903144630 29 156 9.7 20.9 0.00 0.00 0.00 61 1017.0
20260903143630 28 157 9.7 16.1 0.00 0.00 0.00 63 1017.0
20260903142630 28 158 12.9 17.7 0.00 0.00 0.00 64 1017.2
20260903142117 28 140 12.9 22.5 0.00 0.00 0.00 65 1017.2
20260903140630 27 153 11.3 22.5 0.00 0.00 0.00 67 1017.3
20260903135629 27 153 9.7 17.7 0.00 0.00 0.00 68 1017.4
20260903134629 27 180 9.7 17.7 0.00 0.00 0.00 69 1017.5
20260903134112 26 165 8.0 16.1 0.00 0.00 0.00 72 1017.5
20260903132630 26 168 6.4 9.7 0.00 0.00 0.00 73 1017.5
20260903132109 26 148 4.8 6.4 0.00 0.00 0.00 75 1017.3
20260903130629 25 172 4.8 8.0 0.00 0.00 0.00 75 1017.3
20260903125630 25 157 3.2 6.4 0.00 0.00 0.00 78 1017.4
20260903124632 24 147 3.2 6.4 0.00 0.00 0.00 81 1017.3
20260903124110 23 126 0.0 4.8 0.00 0.00 0.00 83 1017.3
20260903122630 23 132 0.0 0.0 0.00 0.00 0.00 83 1017.2
20260903121628 23 132 0.0 0.0 0.00 0.00 0.00 84 1017.0
20260903120626 22 132 0.0 0.0 0.00 0.00 0.00 84 1016.9
20260903115625 22 132 0.0 0.0 0.00 0.00 0.00 85 1016.8
20260903114625 22 132 0.0 0.0 0.00 0.00 0.00 84 1016.9
20260903113625 23 132 0.0 0.0 0.00 0.00 0.00 83 1016.8
20260903112626 23 132 0.0 0.0 0.00 0.00 0.00 82 1016.6
20260903111627 23 132 0.0 0.0 0.00 0.00 0.00 82 1016.6
20260903105626 24 132 0.0 0.0 0.00 0.00 0.00 80 1016.6
20260903104623 24 132 0.0 0.0 0.00 0.00 0.00 79 1016.5
20260903103624 23 132 0.0 0.0 0.00 0.00 0.00 80 1016.4
20260903102617 23 132 0.0 3.2 0.00 0.00 0.00 80 1016.4
20260903101617 24 136 1.6 6.4 0.00 0.00 0.00 80 1016.5
20260903100618 24 131 3.2 6.4 0.00 0.00 0.00 80 1016.4
20260903095617 23 117 3.2 9.7 0.00 0.00 0.00 80 1016.4
20260903094617 24 128 3.2 4.8 0.00 0.00 0.00 80 1016.4
20260903093618 25 119 0.0 6.4 0.00 0.00 0.00 77 1016.4
20260903093056 25 124 0.0 0.0 0.00 0.00 0.00 75 1016.4
20260903091618 25 165 0.0 0.0 0.00 0.00 0.00 75 1016.5
20260903090618 25 155 0.0 0.0 0.00 0.00 0.00 74 1016.3
20260903085614 25 130 0.0 0.0 0.00 0.00 0.00 74 1016.3
20260903084614 26 130 0.0 0.0 0.00 0.00 0.00 73 1016.3
20260903083613 26 130 0.0 0.0 0.00 0.00 0.00 73 1016.3
20260903083114 26 133 4.8 6.4 0.00 0.00 0.00 73 1016.2
20260903081614 25 132 4.8 6.4 0.00 0.00 0.00 73 1016.3
20260903080612 25 130 3.2 4.8 0.00 0.00 0.00 73 1016.1
20260903075613 26 123 3.2 4.8 0.00 0.00 0.00 72 1016.2
20260903074608 26 131 1.6 4.8 0.00 0.00 0.00 71 1016.2
20260903073608 26 136 1.6 3.2 0.00 0.00 0.00 70 1016.2
20260903072609 26 140 3.2 4.8 0.00 0.00 0.00 70 1016.2
20260903071609 26 134 3.2 4.8 0.00 0.00 0.00 70 1016.2
20260903070604 26 152 3.2 6.4 0.00 0.00 0.00 69 1016.1
20260903065605 26 150 4.8 8.0 0.00 0.00 0.00 69 1016.1
20260903064604 26 184 4.8 9.7 0.00 0.00 0.00 68 1016.2
20260903063604 26 180 1.6 8.0 0.00 0.00 0.00 68 1016.1
20260903063041 26 192 0.0 0.0 0.00 0.00 0.00 69 1016.1
20260903061603 26 171 0.0 0.0 0.00 0.00 0.00 70 1015.9
20260903060603 26 147 0.0 0.0 0.00 0.00 0.00 69 1016.0
20260903055602 26 124 0.0 0.0 0.00 0.00 0.00 69 1016.0
20260903054603 26 132 0.0 0.0 0.00 0.00 0.00 68 1016.1
20260903053601 27 132 0.0 0.0 0.00 0.00 0.00 65 1016.0
20260903052603 28 142 0.0 0.0 0.00 0.00 0.00 63 1015.9
20260903051601 28 133 0.0 0.0 0.00 0.00 0.00 62 1015.9
20260903050600 28 133 0.0 0.0 0.00 0.00 0.00 61 1015.9
20260903045601 28 133 0.0 1.6 0.00 0.00 0.00 60 1015.7
20260903044603 28 133 3.2 4.8 0.00 0.00 0.00 60 1015.6
20260903043601 29 132 4.8 6.4 0.00 0.00 0.00 60 1015.7
20260903042602 29 144 4.8 11.3 0.00 0.00 0.00 59 1015.6
20260903041602 29 141 4.8 8.0 0.00 0.00 0.00 58 1015.9
20260903040604 29 143 6.4 9.7 0.00 0.00 0.00 58 1016.0
20260903035603 29 132 6.4 12.9 0.00 0.00 0.00 57 1015.9
20260903034601 30 136 6.4 12.9 0.00 0.00 0.00 57 1015.9
20260903033602 30 131 6.4 11.3 0.00 0.00 0.00 57 1015.9
20260903032602 30 144 6.4 12.9 0.00 0.00 0.00 56 1015.9
20260903031601 30 134 8.0 11.3 0.00 0.00 0.00 56 1015.7
20260903030601 30 132 6.4 11.3 0.00 0.00 0.00 56 1015.9
20260903025601 30 149 6.4 11.3 0.00 0.00 0.00 56 1015.7
20260903024601 30 123 4.8 8.0 0.00 0.00 0.00 55 1015.9
20260903023601 31 133 6.4 11.3 0.00 0.00 0.00 54 1015.5
20260903022601 31 128 6.4 12.9 0.00 0.00 0.00 54 1015.5
20260903021603 31 155 6.4 12.9 0.00 0.00 0.00 53 1015.4
20260903020557 31 154 8.0 14.5 0.00 0.00 0.00 53 1015.3
20260903015557 31 133 8.0 12.9 0.00 0.00 0.00 52 1015.0
20260903014556 31 126 8.0 14.5 0.00 0.00 0.00 51 1014.9
20260903013601 31 166 8.0 17.7 0.00 0.00 0.00 51 1014.8
20260903012559 32 154 6.4 12.9 0.00 0.00 0.00 50 1014.7
20260903012041 32 133 6.4 9.7 0.00 0.00 0.00 49 1014.5